INMARSAT GX5

Last updated on Tue Oct 15 2024 00:02:41 GMT+0000 (Coordinated Universal Time)

1 44801U 19080B 24288.26386137 .00000072 00000+0 00000+0 0 9992 2 44801 0.0165 9.8557 0002516 205.1388 274.2898 1.00268572 681
UTC large
Height (km)
Speed (km/s)
/
Latitude / Longitude
Inclination (degrees)
Orbital Period (minutes)
Azimuth
Elevation
Range (km)
Doppler Factor

Next 0 passes for location: London (51.5072 / 0.1276)

Sorry there are no passes over London.